Location: Losili
(4.4086°N, 32.7049°E)
Time: 13:32:42
(UTC+00:00)

Cosmos 1378 - Pass Details

Date: 18 September 2019
Orbit: 493 x 503 km, 82.5° (Epoch: 19 October)

Event Time Altitude Azimuth Distance (km) Brightness Sun altitude
Rises 16:55:48 0° 356° (N) 2,579 6.8 -17.9°
Reaches altitude 10° 16:57:54 10° 357° (N) 1,696 5.9 -18.4°
Maximum altitude 17:01:37 87° 86° (E) 503 3.0 -19.4°
Drops below altitude 10° 17:05:20 10° 175° (S) 1,696 5.7 -20.3°
Enters shadow 17:06:30 - 175° (S) 2,183 6.3 -20.6°
